Preview of NWS' New Version of Forecast
This preview is not operational and should not be used for support decisions.

Regional Weather Roundup (RWR)

Issued by National Weather Service (NWS)

                            
000
ASCA42 TJSJ 210010
RWRPR 
PUERTO RICO/U.S. VIRGIN ISLANDS HOURLY WEATHER ROUNDUP
NATIONAL WEATHER SERVICE SAN JUAN PR
800 PM AST TUE AUG 20 2019

PRZ001>002-007>008-010-210100-
PUERTO RICO
  
CITY           SKY/WX    TMP DP  RH WIND       PRES   REMARKS
SAN JUAN LMM   PTCLDY    82  77  83 E12       30.02S HX  91           
AGUADILLA      CLEAR     79  73  83 E6        30.03S                  
CEIBA          CLEAR     82  75  78 NE7       30.04R                  
$$

VIZ001>002-210100-
U.S. VIRGIN ISLANDS
  
CITY           SKY/WX    TMP DP  RH WIND       PRES   REMARKS
CHARLOTTE AMA  CLEAR     82  75  78 NE8       30.01R                  
CHRISTIANSTED  PTCLDY    81  73  78 NE7       30.02R                  
$$

HOURLY WEATHER ROUNDUP FOR THE NEWS MEDIA
  
CITY           SKY/WX    TMP DP  RH WIND       PRES   REMARKS
ORLANDO        FAIR      83  73  72 E9        30.09S                  
NEW YORK       MOCLDY    77  69  76 SE6       30.04S                  
NEWARK         MOCLDY    82  66  58 SE6       30.03R                  
CHICAGO        MOCLDY    74  68  81 S6        29.90S                  
HARTFORD       FAIR      72  64  76 SW7       30.02F                  
BOSTON         FAIR      74  62  66 E3        30.03                   
DALLAS         MOSUNNY   99  64  31 SE9       29.93F HX 101           
PHILADELPHIA   MOCLDY    85  71  63 S7        30.02S HX  90           
LOS ANGELES    SUNNY     75  60  59 W16       29.89S                  
WASHINGTON DC  MOCLDY    74  71  91 SE3       30.07R